Location: Unspecified
(0.0000°N, 0.0000°E)
Time: 11:36:41
(UTC+00:00)

ISS - Visible Passes

Search period start: 17 December 2018 00:00
Search period end: 27 December 2018 00:00
Orbit: 401 x 408 km, 51.6° (Epoch: 18 December)

Date Brightness Start Highest point End Pass type
(mag) Time Alt. Az. Time Alt. Az. Time Alt. Az.
17 Dec -3.4 18:34:08 10° NW 18:37:21 67° SW 18:40:35 10° SSE visible
19 Dec -0.9 05:16:32 10° S 05:19:13 23° SE 05:21:54 10° ENE visible
19 Dec -0.5 18:27:15 10° W 18:29:22 16° SW 18:31:29 10° SSW visible
21 Dec -3.9 05:07:54 10° SW 05:11:11 79° NW 05:14:27 10° NNE visible
22 Dec -2.0 04:16:00 10° SSW 04:19:01 33° SE 04:22:00 10° ENE visible
23 Dec -2.0 05:04:06 16° NNW 05:04:06 16° NNW 05:05:29 10° N visible
